Regional Weather Roundup
Issued by NWS Grand Forks, ND

Home | Current Version | Previous Version | Text Only | Print | Product List | Glossary Off
Versions: 1 2 3 4 5 6 7 8 9 10 11 12 13 14 15 16 17 18 19 20 21 22 23 24 25 26 27 28 29 30 31 32 33 34 35 36 37 38 39 40 41 42 43 44 45 46 47 48 49 50

000
ASUS43 KFGF 180210
RWRFGF
PRAIRIE TO PINES  WEATHER ROUNDUP
NATIONAL WEATHER SERVICE EASTERN NORTH DAKOTA/GRAND FORKS ND
800 PM CST SUN DEC 17 2017

 **SATELLITE DATA USED TO AUGMENT SKY COVER AT AUTOMATED STATIONS**
 *****  WEATHER ACROSS EASTERN NORTH DAKOTA  *****

CITY           SKY/WX    TMP DP  RH WIND       PRES   REMARKS
GRAND FORKS    MOCLDY    21  20  96 S13       29.80S FOG     WCI   9
GRAND FRKS AFB FLURRIES  19  18  93 S10       29.79F WCI   8
GRAND FRKS NWS   N/A     21 N/A N/A S9          N/A  WCI  11
DEVILS LAKE    FAIR      32  24  72 S13       29.72F WCI  22
FARGO          FOG       31  30  96 S10       29.85F VSB 1/2 WCI  22
WAHPETON ARPT  FAIR      30  28  93 SE8       29.89F WCI  23
$$

 ***** WEATHER ACROSS CENTRAL AND WESTERN NORTH DAKOTA  *****

CITY           SKY/WX    TMP DP  RH WIND       PRES   REMARKS
BISMARCK       FAIR      36  21  54 SW9       29.77F
MINOT          CLOUDY    36  26  67 SW10      29.67S
JAMESTOWN      FAIR      29  23  78 S9        29.79F WCI  20
MINOT AFB      MOCLDY    34  23  63 SW14      29.65F WCI  25
GARRISON         N/A     36  26  67 W14       29.70S
WILLISTON      MOCLDY    31  20  63 SW6       29.70S
DICKINSON      CLOUDY    35  20  54 W15       29.71S
HETTINGER      CLOUDY    33  22  63 W8        29.78S
$$

 *****  OTHER AIRPORT OBSERVATIONS IN OUR AREA  *****

CITY           SKY/WX    TMP DP  RH WIND       PRES   REMARKS
WALHALLA       FAIR      30  23  74 S15       29.70F WCI  19
GRAFTON AIRPOR NOT AVBL
VALLEY CITY AR NOT AVBL
CANDO          FAIR      30  28  93 S14       29.71F WCI  20
CAVALIER APRT  FAIR      18  16  93 S8        29.74S WCI   7
GWINNER          N/A     27  27 100 S12       29.85F WCI  16
SHEYENNE NWR     N/A     26  26 100 S7        29.95S WCI  18
ROLLA          FAIR      28  25  86 S13       29.65F WCI  18
 ***** THE ABOVE OBSERVATIONS ARE NON NWS ARE NOT QUALITY
       CONTROLLED AND MAY MIS-REPORT RAIN FOR SNOW...
$$

  *****  WEATHER ACROSS NORTHERN MINNESOTA  *****

CITY           SKY/WX    TMP DP  RH WIND       PRES   REMARKS
FLAG ISLAND    FAIR      10   9  92 S8        29.76F WCI  -1
WARROAD        FAIR      18  14  86 S7        29.78F WCI   8
ROSEAU         FAIR      19  16  86 S12       29.77F WCI   7
HALLOCK        FAIR      19  18  93 S18       29.76F FOG     WCI   4
THF RVR FALLS  FOG       22  22 100 S10       29.82F VSB 1/2 WCI  11
BAUDETTE       FAIR      20  18  92 S9        29.80F WCI   9
WASKISH        FAIR      23  21  93 S5        29.83F WCI  17
CROOKSTON      CLOUDY    27  25  93 S14       29.83F FOG     WCI  15
STEPHEN NDAWN    N/A     23  21  93 S16         N/A  WCI  10
GREENBUSH NDAW   N/A     18  16  93 S12         N/A  WCI   5
$$
  *****  WEATHER ACROSS CENTRAL AND WEST MINNESOTA  *****

CITY           SKY/WX    TMP DP  RH WIND       PRES   REMARKS
FOSSTON        FOG       21  21 100 S9        29.84F VSB 1/2 WCI  11
BEMIDJI        CLOUDY    24  23  97 S8        29.85S FOG     WCI  15
PARK RAPIDS    CLOUDY    27  24  89 S12       29.87F WCI  17
ELBOW LAKE     FAIR      24  24 100 SE7       29.91S FOG     WCI  16
WADENA         FOG       27  27 100 SW7       29.89F VSB 3/4 WCI  19
DETROIT LAKES  CLOUDY    28  28 100 S13       29.88S FOG     WCI  18
MOORHEAD       FOG       28  28 100 S15       29.87F VSB 1/2 WCI  17
FERGUS FALLS   FAIR      27  27 100 SE6       29.93S FOG     WCI  20
MORRIS MN      CLOUDY    28  27  93 S7        29.90F FOG     WCI  21
STAPLES        FOG       25  25 100 S6        29.91S VSB 1/4 WCI  18
$$
  *****  WEATHER ELSEWHERE ACROSS MINNESOTA  *****

CITY           SKY/WX    TMP DP  RH WIND       PRES   REMARKS
DULUTH         CLOUDY    24  21  88 SW6       29.90F WCI  17
INTRNTL FALLS  CLOUDY    27  24  89 S7        29.83F FOG     WCI  19
ELY            CLOUDY    21  21 100 SW6       29.88S WCI  14
CLOQUET        CLOUDY    25  19  80 S3        29.91F
WHEATON        FAIR      28  27  93 SE8       29.92S WCI  20
BRAINERD       CLOUDY    27  21  78 S6        29.92F WCI  20
HIBBING        CLOUDY    23  22  96 SW5       29.88F WCI  17
ALEXANDRIA     CLOUDY    26  25  96 S6        29.91F WCI  19
SAINT CLOUD    CLOUDY    23  21  92 SE5       29.95F WCI  17
MINNEAPOLIS    CLOUDY    27  25  92 VRB3      29.99R FOG
$$

  *****  WEATHER ACROSS SOUTH DAKOTA  *****

CITY           SKY/WX    TMP DP  RH WIND       PRES   REMARKS
SIOUX FALLS    MOCLDY    32  29  88 SW3       29.95S
BROOKINGS      CLOUDY    33  27  78 S7        29.92F
WATERTOWN      CLOUDY    32  31  96 S7        29.88F
HURON          CLOUDY    38  32  79 MISG      29.90S
SISSETON         N/A     32  30  92 S7        29.88S
ABERDEEN       CLOUDY    33  29  85 S9        29.87F
MITCHELL       CLOUDY    37  29  72 S7        29.94S
PIERRE         FAIR      32  29  88 S7        29.86S
MOBRIDGE       FAIR      31  26  82 S3        29.81S
RAPID CITY     MOCLDY    30  22  72 W6        29.84R WCI  24
$$

  *****  SOME WEATHER IN NEARBY STATES *****

CITY           SKY/WX    TMP DP  RH WIND       PRES   REMARKS
GLASGOW MT     MOCLDY    32  23  69 W7        29.70F
GREAT FALLS MT MOCLDY    36  20  52 SW32G43   29.80F
CHEYENNE WY    FAIR      29  17  61 W6        29.91R WCI  23
SCOTTSBLUFF NE FAIR      31  17  56 W7        29.90R WCI  24
OMAHA NE       FAIR      29  23  78 CALM      30.02R
DES MOINES IA  CLOUDY    36  31  82 W7        29.99R
DAVENPORT IA   CLOUDY    39  37  92 CALM      30.01S FOG
CHICAGO IL     CLOUDY    42  30  62 SW3       29.99S
EAU CLAIRE WI  CLOUDY    28  26  92 S5        29.98R FOG     WCI  23
LA CROSSE WI   CLOUDY    32  29  88 CALM      29.99S FOG
$$

  *****  SOME NATIONAL WEATHER *****

CITY           SKY/WX    TMP DP  RH WIND       PRES   REMARKS
LA GUARDIA NY  CLOUDY    35  25  66 NE7       30.25S
RALEIGH NC     CLOUDY    45  40  82 S5        30.21F
ATLANTA GA     DRIZZLE   46  45  96 E5        30.18F
NEW ORLEANS LA CLOUDY    67  67 100 S6        30.11R FOG
OKLAHOMA CITY  CLOUDY    39  38  96 S7        30.07R
ALBUQUERQUE NM FAIR      41  27  57 SE5       30.06R
SALT LAKE CITY FAIR      30  24  78 CALM      30.24R
LOS ANGELES CA FAIR      66  22  18 CALM      29.97R
BOISE ID       CLOUDY    34  22  61 SW3       30.24R
SEATTLE WA     CLOUDY    48  43  82 S20G29    30.01S
$$

*** WEATHER ACROSS MANITOBA...SASKATCHEWAN AND ONTARIO ***
                ***ONTARIO***

CITY           SKY/WX    TMP DP  RH WIND       PRES   REMARKS
GERALDTON      FLURRIES  27  23  86 SW13G20   29.80S WCI  16
THUNDER BAY    CLOUDY    28  23  80 W8        29.89F WCI  20
SIOUX LOOKOUT  FLURRIES  25  23  93 SW7       29.76F WCI  17
TORONTO        CLOUDY    19  16  86 E6        30.10F WCI  11
BIG TROUT LK   FLURRIES  19  18  93 SW8       29.56F WCI   9
PICKLE LAKE    FLURRIES  23  23 100 SW13G18   29.68F WCI  11
DRYDEN         CLOUDY    25  23  93 SW12      29.77F WCI  14
KENORA         CLEAR     18  16  93 S10       29.74F WCI   6
$$
                *** MANITOBA***

CITY           SKY/WX    TMP DP  RH WIND       PRES   REMARKS
BRANDON        CLOUDY    30  23  74 SW15G22   29.59F WCI  19
DAUPHIN        CLOUDY    32  25  74 SW18G24   29.49F WCI  20
ISLAND LAKE    NOT AVBL
PILOT MOUND      N/A     25  21  86 S16         N/A  WCI  12
THE PAS        PTCLDY    27  21  80 SW12G18   29.26F WCI  16
THOMPSON       CLOUDY    19  18  93 S3        29.22F
WINNIPEG       MOCLDY    19  16  86 S18       29.68F WCI   4
LYNN LAKE      LGT SNOW  19  18  93 S5        29.08F WCI  13
CHURCHILL      CRYSTALS   3   0  85 SE9       29.42F WCI -11
$$
                ***SASKATCHEWAN***

CITY           SKY/WX    TMP DP  RH WIND       PRES   REMARKS
ESTEVAN        PTCLDY    28  21  74 SW10      29.62F WCI  19
KINDERSLEY     CLOUDY    27  21  80 W13       29.55R WCI  16
LLOYDMINSTER   CLEAR     32  23  69 W17G24    29.44R WCI  21
PRINCE ALBERT  PTCLDY    27  19  74 W9        29.37F WCI  17
REGINA         MOCLDY    30  27  86 SW9       29.56S WCI  22
YORKTON        CLOUDY    28  21  74 SW17G24   29.45F WCI  16
N. BATTLEFORD  CLEAR     30  23  74 W9        29.47S WCI  22
LA RONGE       LGT SNOW  32  30  93 W13G22    29.20S DRFTSNOWWCI  22
SASKATOON      PTCLDY    30  23  74 SW13      29.48S WCI  20
SWIFT CURRENT  MOCLDY    32  25  74 SW13G18   29.58F WCI  22
$$
NOTE: THESE ARE AUTOMATED STATIONS WITH LIMITED QUALITY CONTROL
      "FAIR" INDICATES FEW OR NO CLOUDS BELOW 12,000 FEET WITH NO
      SIGNIFICANT WEATHER AND/OR OBSTRUCTIONS TO VISIBILITY.
      SKY/WX - SKY CONDITION AND SIGNIFICANT WEATHER.
      TMP - AIR TEMPERATURE.    DP   - DEWPOINT TEMPERATURE.
      RH  - RELATIVE HUMIDITY.  PRES - PRESSURE.
      HX  - HEAT INDEX.         WCI  - WIND CHILL INDEX.
$




USA.gov is the U.S. government's official web portal to all federal, state and local government web resources and services.